Weather History for Ypsilanti, MI

Change the Weather History Date:

Tuesday, January 29, 2013

  Actual Average Record
Temperature  
Mean Temperature 48 °F -  
Max Temperature 60 °F 31 °F 60 °F (2013)
Min Temperature 37 °F 19 °F -9 °F (1977)
Degree Days  
Heating Degree Days 16    
Moisture  
Dew Point 46 °F    
Average Humidity 87    
Maximum Humidity 94    
Minimum Humidity 77    
Precipitation  
Precipitation 0.45 in - - ()
Sea Level Pressure  
Sea Level Pressure 29.79 in    
Wind  
Wind Speed 8 mph (South)    
Max Wind Speed 20 mph    
Max Gust Speed 24 mph    
Visibility 3 miles    
Events Fog , Rain    
Averages and records for this station are not official NWS values.
T = Trace of Precipitation, MM = Missing Value Source: NWS Daily Summary

Daily Weather History Graph

Daily Weather History Graph

Search for Another Location

Airport:

Trip Planner

Search our weather history database for the weather conditions in past years. The results will help you decide how hot, cold, wet, or windy it might be!

Date:

Astronomy

Jan. 29, 2013 Rise Set
Actual Time 7:50 AM EST 5:44 PM EST
Civil Twilight 7:20 AM EST 6:14 PM EST
Nautical Twilight 6:46 AM EST 6:48 PM EST
Astronomical Twilight 6:13 AM EST 7:21 PM EST
Moon 8:44 PM EST (1/29) 8:42 AM EST (1/29)
Length of Visible Light 10h 54m
Length of Day
9h 54m
Waning Gibbous, 94% of the Moon is Illuminated
Jan 29
Waning Gibbous
Feb 3
Last Quarter
Feb 10
New
Feb 17
First Quarter
Feb 25
Full

Hourly Weather History & Observations

Time (EST) Temp. Windchill Dew Point Humidity Pressure Visibility Wind Dir Wind Speed Gust Speed Precip Events Conditions
12:53 AM 37.9 °F 34.4 °F 34.0 °F 86% 30.01 in 3.0 mi ESE 4.6 mph - N/A   Overcast
1:16 AM 37.4 °F 34.9 °F 33.8 °F 87% 29.99 in 2.5 mi SE 3.5 mph - N/A   Overcast
1:53 AM 37.9 °F 35.5 °F 34.0 °F 86% 30.00 in 2.0 mi SSE 3.5 mph - N/A   Overcast
2:02 AM 37.4 °F 34.9 °F 33.8 °F 87% 29.98 in 1.5 mi ESE 3.5 mph - N/A   Overcast
2:36 AM 37.4 °F 33.8 °F 33.8 °F 87% 29.98 in 1.0 mi SE 4.6 mph - N/A   Overcast
2:53 AM 37.9 °F 35.5 °F 35.1 °F 89% 29.99 in 1.0 mi SE 3.5 mph - N/A   Overcast
3:03 AM 37.4 °F 34.9 °F 35.6 °F 93% 29.98 in 0.5 mi SE 3.5 mph - N/A Fog Fog
3:18 AM 37.4 °F 33.8 °F 35.6 °F 93% 29.97 in 0.2 mi ESE 4.6 mph - N/A Fog Fog
3:53 AM 37.9 °F 34.4 °F 35.1 °F 89% 29.97 in 0.2 mi SE 4.6 mph - N/A Fog Fog
4:26 AM 37.4 °F 32.1 °F 35.6 °F 93% 29.93 in 0.5 mi ESE 6.9 mph - 0.01 in Fog Fog
4:53 AM 39.0 °F 34.0 °F 35.1 °F 86% 29.93 in 0.5 mi SE 6.9 mph - 0.01 in Fog Fog
5:11 AM 39.2 °F 35.0 °F 35.6 °F 87% 29.94 in 1.0 mi SE 5.8 mph - 0.04 in Rain Rain
5:29 AM 37.4 °F 28.9 °F 35.6 °F 93% 29.89 in 3.0 mi SE 13.8 mph - 0.08 in Rain Light Rain
6:34 AM 39.2 °F 35.0 °F 35.6 °F 87% 29.86 in 1.8 mi ESE 5.8 mph - 0.00 in   Overcast
6:53 AM 39.0 °F 34.8 °F 36.0 °F 89% 29.86 in 1.2 mi East 5.8 mph - 0.00 in   Overcast
7:23 AM 39.2 °F 37.0 °F 37.4 °F 93% 29.84 in 0.8 mi East 3.5 mph - N/A   Mist
7:53 AM 39.9 °F 36.7 °F 37.0 °F 89% 29.84 in 0.5 mi ESE 4.6 mph - 0.02 in Fog , Rain Light Rain
8:16 AM 41.0 °F - 37.4 °F 87% 29.83 in 0.2 mi Calm Calm - 0.00 in Fog Fog
8:43 AM 42.8 °F 41.1 °F 39.2 °F 87% 29.83 in 0.5 mi SSE 3.5 mph - 0.11 in Fog , Rain Light Rain
8:53 AM 42.1 °F 40.2 °F 39.0 °F 89% 29.83 in 0.5 mi SSE 3.5 mph - 0.11 in Fog Fog
9:03 AM 44.6 °F 43.1 °F 41.0 °F 87% 29.83 in 0.2 mi South 3.5 mph - N/A Fog Fog
9:53 AM 46.0 °F - 43.0 °F 89% 29.82 in 0.2 mi Calm Calm - N/A Fog Fog
10:37 AM 50.0 °F - 46.4 °F 87% 29.80 in 0.5 mi SSW 9.2 mph - 0.02 in Rain Light Rain
10:44 AM 51.8 °F - 48.2 °F 88% 29.80 in 1.0 mi SSW 12.7 mph - 0.02 in   Overcast
10:53 AM 53.1 °F - 48.9 °F 86% 29.80 in 1.0 mi SSW 13.8 mph - 0.02 in   Overcast
11:40 AM 53.6 °F - 50.0 °F 88% 29.80 in 0.8 mi SW 13.8 mph - 0.02 in   Overcast
11:53 AM 54.0 °F - 50.0 °F 86% 29.81 in 0.8 mi SW 13.8 mph - 0.03 in Rain Light Rain
12:16 PM 53.6 °F - 51.8 °F 94% 29.77 in 1.2 mi SSW 11.5 mph - 0.02 in Rain Light Rain
12:34 PM 55.4 °F - 51.8 °F 88% 29.75 in 3.0 mi SSW 12.7 mph - 0.04 in Rain Light Rain
12:53 PM 55.9 °F - 52.0 °F 87% 29.76 in 2.5 mi SSW 18.4 mph - 0.04 in   Overcast
1:11 PM 55.4 °F - 51.8 °F 88% 29.75 in 1.8 mi SW 16.1 mph - N/A   Overcast
1:53 PM 57.0 °F - 53.1 °F 87% 29.75 in 1.2 mi SSW 15.0 mph 21.9 mph 0.00 in   Overcast
2:20 PM 57.2 °F - 53.6 °F 88% 29.73 in 2.0 mi SSW 15.0 mph - N/A   Haze
2:37 PM 57.2 °F - 53.6 °F 88% 29.72 in 2.5 mi SSW 13.8 mph - N/A   Overcast
2:53 PM 57.9 °F - 53.1 °F 84% 29.72 in 2.5 mi SSW 16.1 mph - N/A   Haze
3:08 PM 57.2 °F - 53.6 °F 88% 29.72 in 3.0 mi SSW 17.3 mph - N/A   Haze
3:37 PM 57.2 °F - 53.6 °F 88% 29.71 in 3.0 mi SSW 11.5 mph - 0.00 in Rain Light Rain
3:53 PM 57.9 °F - 53.1 °F 84% 29.72 in 4.0 mi SSW 13.8 mph - 0.01 in Rain Light Rain
4:24 PM 57.2 °F - 53.6 °F 88% 29.72 in 2.0 mi SSW 15.0 mph 20.7 mph 0.03 in Rain Light Rain
4:51 PM 57.2 °F - 53.6 °F 88% 29.71 in 1.5 mi SSW 12.7 mph - 0.08 in Rain Heavy Rain
4:53 PM 57.9 °F - 54.0 °F 87% 29.71 in 1.2 mi SSW 13.8 mph - 0.08 in Rain Rain
5:05 PM 57.2 °F - 53.6 °F 88% 29.72 in 2.0 mi SSW 10.4 mph - 0.01 in Rain Rain
5:32 PM 57.2 °F - 53.6 °F 88% 29.71 in 3.0 mi South 12.7 mph - 0.02 in Rain Light Rain
5:53 PM 59.0 °F - 53.1 °F 81% 29.70 in 5.0 mi SSW 16.1 mph - 0.03 in   Haze
6:37 PM 59.0 °F - 53.6 °F 82% 29.69 in 5.0 mi SSW 16.1 mph 24.2 mph 0.00 in Rain Light Rain
6:53 PM 59.0 °F - 53.1 °F 81% 29.68 in 7.0 mi SSW 18.4 mph - 0.01 in Rain Light Rain
7:53 PM 59.0 °F - 53.1 °F 81% 29.67 in 7.0 mi South 13.8 mph - 0.09 in Rain Light Rain
8:01 PM 59.0 °F - 53.6 °F 82% 29.67 in 7.0 mi South 16.1 mph - 0.00 in   Overcast
8:53 PM 60.1 °F - 53.1 °F 78% 29.62 in 8.0 mi South 17.3 mph - 0.00 in   Overcast
9:53 PM 60.1 °F - 53.1 °F 78% 29.57 in 9.0 mi South 19.6 mph - N/A   Overcast
10:06 PM 59.0 °F - 53.6 °F 82% 29.57 in 9.0 mi SSE 15.0 mph - N/A   Overcast
10:21 PM 59.0 °F - 51.8 °F 77% 29.56 in 7.0 mi SSE 16.1 mph - N/A   Overcast
10:53 PM 57.0 °F - 51.1 °F 81% 29.52 in 6.0 mi SSE 12.7 mph - N/A   Haze
11:53 PM 57.0 °F - 51.1 °F 81% 29.48 in 7.0 mi SSE 13.8 mph - N/A   Mostly Cloudy